Theta_e
333 333 333 333 333 333 333 332 331 330 330 330 328 326 324 320 316 315 314 311 310 308
332 332 331 333 334 333 334 331 329 329 327 326 323 319 316 311 308 310 310 308 308 303
330 331 332 332 332 332 333 328 327 325 322 317 313 311 308 304 303 303 302 301 300 298
327 329 329 328 328 329 328 323 321 318 313 309 306 305 303 301 299 299 296 297 296 295
322 323 324 324 323 321 320 318 316 312 309 306 304 303 301 298 297 296 295 295 294 293
315 316 318 319 315 313 310 309 307 307 304 303 301 300 299 296 295 294 294 293 292 291
309 312 309 305 305 304 304 302 302 302 303 297 298 295 294 293 293 292 292 292 291 291
305 307 306 301 299 297 298 299 297 296 293 294 292 290 290 290 290 289 289 289 288 289
300 299 298 296 293 294 291 291 292 291 291 289 287 292 292 290 288 287 287 286 286 285
292 292 292 290 290 289 289 289 289 288 289 287 288 291 291 289 287 287 286 285 285 284
290 289 288 288 288 287 287 288 288 288 287 287 288 291 290 288 287 286 286 285 285 284
289 288 287 287 287 286 287 287 287 287 287 287 287 290 289 287 286 285 284 285 286 285
289 288 287 287 286 286 287 286 286 286 287 287 287 289 289 287 285 284 284 284 285 284
288 288 288 287 286 286 285 285 285 285 286 286 287 287 289 288 285 284 284 283 283 284
Wind_Speed
20 13 13 15 11 10 10 10 14 14 12 10 8 7 7 5 5 6 6 9 6 5
17 18 16 17 14 11 12 10 13 14 11 9 10 8 7 6 7 7 6 7 7 6
16 16 15 13 16 15 12 10 12 11 11 10 9 10 10 7 6 9 5 5 8 7
14 15 15 13 13 12 11 11 12 12 12 11 10 10 11 9 9 10 8 7 8 8
11 9 14 13 10 6 9 10 11 12 12 12 11 11 13 13 10 11 11 10 9 9
12 10 11 9 7 8 8 9 9 11 13 13 13 12 11 11 12 10 10 10 10 9
7 7 4 4 5 7 8 10 10 10 11 12 12 11 10 11 11 10 8 7 8 8
5 5 5 5 6 5 8 9 9 11 9 10 11 9 12 11 11 12 10 7 6 6
5 3 4 5 5 7 6 7 10 10 12 11 5 17 16 15 12 10 10 10 7 7
7 7 6 5 6 6 7 7 8 8 11 10 10 18 18 17 10 10 10 10 9 8
7 7 8 7 6 6 6 8 9 9 9 10 9 18 19 16 10 8 9 9 9 9
8 8 9 10 11 8 7 6 7 7 10 11 11 18 18 13 9 8 7 7 8 8
8 8 8 8 9 7 9 7 7 8 7 10 11 17 18 12 7 8 6 5 5 7
7 8 8 8 6 8 9 9 8 8 6 8 10 13 19 16 8 7 7 6 6 5
Wind_Direction
210 211 212 214 209 210 207 203 194 191 194 195 174 166 151 136 129 136 137 135 133 130
214 213 210 211 210 206 207 198 199 187 174 173 149 144 134 133 131 133 130 124 137 124
216 217 218 213 210 206 202 175 182 170 158 152 143 138 132 129 126 124 116 121 129 122
222 217 218 221 217 209 186 171 173 171 153 145 144 142 135 135 136 130 128 133 140 136
230 237 216 212 208 189 179 170 172 159 151 147 152 155 151 147 153 145 152 146 139 141
216 212 223 212 172 161 157 158 158 155 151 154 154 152 152 148 145 152 149 148 149 149
217 210 171 141 150 152 157 154 158 161 160 148 148 144 143 141 139 134 134 131 134 147
240 217 176 145 143 141 152 162 149 145 138 140 145 137 146 137 135 133 128 123 123 129
187 168 150 144 142 149 135 143 141 152 144 149 129 144 147 137 138 137 137 140 133 130
156 154 154 140 139 145 142 136 140 134 137 136 131 144 138 132 136 142 149 149 144 136
165 155 141 142 142 134 143 148 155 146 145 127 144 147 140 136 135 139 145 149 142 162
168 165 162 160 157 146 152 153 150 150 139 140 144 151 149 137 139 135 142 141 158 167
165 164 178 168 157 152 148 153 146 130 141 138 141 154 158 143 138 135 137 137 166 177
160 169 172 158 158 152 144 139 143 136 131 134 151 163 166 158 153 155 157 174 177 184